Regional Weather Roundup
Issued by NWS

Home | Current Version | Previous Version | Text Only | Print | Product List | Glossary Off
Versions: 1 2 3 4 5 6 7 8 9 10 11 12 13 14 15 16 17 18 19 20 21 22 23 24 25 26 27

000
ASUS45 KBOU 292307
RWRCO

WEATHER ROUNDUP FOR COLORADO
NATIONAL WEATHER SERVICE DENVER/BOULDER CO
500 PM MDT FRI APR 29 2016

NOTE: "FAIR" INDICATES FEW OR NO CLOUDS BELOW 12000 FEET WITH NO
SIGNIFICANT WEATHER AND/OR OBSTRUCTIONS TO VISIBILITY.

COZ001>005-013-030-031-300000-
...NORTHWEST COLORADO...

CITY           SKY/WX    TMP DP  RH WIND       PRES   REMARKS
CRAIG          CLOUDY    49  34  56 N12       29.79F
HAYDEN         FAIR      39  34  81 SE7       29.80F
MEEKER         LGT RAIN  42  37  82 SE7       29.80F
MOUNT WERNER   NOT AVBL
STEAMBOAT SPGS CLOUDY    33  32  96 CALM      29.81F
WALDEN         CLOUDY    34  32  93 E3        29.84S
$$

COZ006>008-011-300000-
...WEST CENTRAL VALLEYS...

CITY           SKY/WX    TMP DP  RH WIND       PRES   REMARKS
GRAND JUNCTION FAIR      57  34  41 NW17      29.74F
MONTROSE       FAIR      51  33  50 SW7       29.79F
EAGLE          NOT AVBL
RIFLE          FAIR      50  35  56 NW15G23   29.76S
DELTA          NOT AVBL
NUCLA          NOT AVBL
$$

COZ017>023-064>068-300000-
...SOUTHWEST COLORADO...

CITY           SKY/WX    TMP DP  RH WIND       PRES   REMARKS
DURANGO        PTSUNNY   50  29  44 W22       29.77F
CORTEZ         CLOUDY    53  33  46 W17G25    29.79F
PAGOSA SPRINGS LGT SNOW  36  35  99 E3        29.82F
TELLURIDE      LGT SNOW  34  32  94 SW7       29.86S WCI  27
WOLF CREEK PAS HVY SNOW  21  21 100 MISG      29.87F VSB<1/4
$$

COZ009-010-012-014-032>034-037-058>063-300000-
...CENTRAL COLORADO...

CITY           SKY/WX    TMP DP  RH WIND       PRES   REMARKS
ASPEN          LGT SNOW  36  33  89 N5        29.79F FOG
BUENA VISTA    LGT SNOW  32  31  94 SE7       29.83S WCI  26
COPPER MTN     NOT AVBL
BERTHOUD PASS  HAZE      18   7  62 E18       29.86S VSB<1/4 WCI   2
COTTONWOOD PAS LGT SNOW  32  30  93 E3        29.84S
GUNNISON       FAIR      37  30  75 NE7       29.81F
KREMMLING      CLOUDY    37  32  81 CALM      29.81F
LEADVILLE      CLOUDY    29  26  89 S12       29.79F WCI  19
MONARCH PASS   CLOUDY    21  19  93 NE10      29.94S WCI  10
SALIDA         CLOUDY    36  33  88 SE12      29.90F
SUNLIGHT       CLOUDY    32  30  93 CALM      29.88F
WILKERSON PASS LGT SNOW N/A N/A N/A E12G17    29.86F
$$

COZ069>075-300000-
...SAN LUIS VALLEY/SANGRE DE CRISTO MOUNTAINS...

CITY           SKY/WX    TMP DP  RH WIND       PRES   REMARKS
ALAMOSA        LGT SNOW  35  32  88 NW7       29.80R FOG     WCI  29
LA VETA PASS   SNOW      23  19  86 MISG      29.82F VSB 1/2
SAGUACHE       LGT RAIN  32  32 100 S5        29.81S WCI  27
$$

COZ035-036-038>040-300000-
...NORTHERN COLORADO FRONT RANGE...

CITY           SKY/WX    TMP DP  RH WIND       PRES   REMARKS
DENVER INTL AP LGT SNOW  33  30  88 N8        29.91F VSB 1   WCI  26
DMNS CITY PARK   N/A     34  34  98 N6        29.91F WCI  29
AURORA         LGT SNOW  33  33 100 N8        29.91F FOG     WCI  26
FRONT RANGE AP LGT SNOW  32  32 100 N8        29.91F WCI  25
ERIE MUNI ARPT LGT RAIN  36  35  96 N6        29.92F
BOULDER MUN AP LGT RAIN  34  34 100 NE3       29.92F
CENTENNIAL     LGT SNOW  33  31  92 N9        29.90F VSB 3/4 WCI  25
BROOMFIELD     LGT SNOW  36  36 100 NW7       29.91F VSB 3/4
FORT COLLINS   CLOUDY    37  36  93 CALM      29.94F
LONGMONT       MIX PCPN  39  37  91 N5        29.95S
$$

COZ041-046-047-076>085-087-088-300000-
...PIKES PEAK/PALMER DIVIDE AND SOUTHERN FOOTHILLS...

CITY           SKY/WX    TMP DP  RH WIND       PRES   REMARKS
COLO. SPRINGS  SNOW      33  30  88 NE8       29.88S VSB 1/4 WCI  26
A. F. ACADEMY  LGT SNOW  32  32 100 N9        29.86S FOG     WCI  24
SCHRIEVER AFB  NOT AVBL
ELLICOTT       NOT AVBL
FALCON         LGT SNOW  33  30  89 N7        29.87S WCI  26
FORT CARSON    FLURRIES  34  32  93 N7        29.86S WCI  28
LIMON          LGT SNOW  32  31  96 N10       29.86F VSB 1   WCI  24
MONUMENT HILL  LGT SNOW  30  28  93 N10       29.88S WCI  21
TRINIDAD       CLOUDY    34  30  85 N8        29.84S WCI  27
$$

COZ042>045-048>051-090-091-300000-
...NORTHEAST COLORADO...

CITY           SKY/WX    TMP DP  RH WIND       PRES   REMARKS
GREELEY ARPT   CLOUDY    36  34  93 N5        29.94F
AKRON          HVY SNOW  32  30  92 NE7       29.90F VSB 1/4 WCI  26
BURLINGTON     SNOW      33  31  92 NW8       29.88S VSB 1/2 WCI  26
WRAY           NOT AVBL
STERLING       LGT SNOW  34  32  93 NE5       29.93R WCI  30
HOLYOKE        NOT AVBL
FORT MORGAN    LGT SNOW  33  32  98 N7        29.93S WCI  26
$$

COZ086-089-092>099-300000-
...SOUTHEAST COLORADO...

CITY           SKY/WX    TMP DP  RH WIND       PRES   REMARKS
PUEBLO         LGT RAIN  39  34  82 NE6       29.88R
LA JUNTA       LGT RAIN  39  36  89 N15       29.86S
LAMAR          CLOUDY    39  37  92 NE9       29.83F
SPRINGFIELD      N/A     38  36  92 N16       29.81R
$$




USA.gov is the U.S. government's official web portal to all federal, state and local government web resources and services.